FW8761 Weather Reports


Display with metric or nautical units.
time (UTC)temp
F
wind
direction
speed
MPH
gust
MPH
rain 1hr
in
rain 24hr
in
rain mn
in
humidity
%
barometer
mb
20260506191528 88 71 1.0 9.0 0.00 0.00 0.00 66 1007.9
20260506190035 87 0 1.0 5.0 0.00 0.00 0.00 69 1008.2
20260506184529 85 0 2.0 7.0 0.00 0.00 0.00 73 1008.2
20260506183030 83 51 0.0 6.0 0.00 0.00 0.00 76 1008.5
20260506181533 82 110 1.0 4.0 0.00 0.00 0.00 77 1008.8
20260506180030 81 77 1.0 6.0 0.00 0.00 0.00 78 1009.0
20260506174530 81 96 0.0 6.0 0.00 0.00 0.00 77 1009.0
20260506173037 81 0 1.0 6.0 0.00 0.00 0.00 77 1009.1
20260506171528 82 0 1.0 5.0 0.00 0.00 0.00 78 1009.0
20260506170030 81 346 0.0 4.0 0.00 0.00 0.00 78 1009.1
20260506164528 81 0 1.0 7.0 0.00 0.00 0.00 80 1009.1
20260506163045 80 44 1.0 6.0 0.00 0.00 0.00 82 1009.1
20260506161530 79 83 1.0 7.0 0.00 0.00 0.00 85 1009.1
20260506160029 78 178 1.0 4.0 0.00 0.00 0.00 86 1008.9
20260506154537 77 0 0.0 3.0 0.00 0.00 0.00 87 1008.7
20260506153031 77 83 0.0 3.0 0.00 0.00 0.00 87 1008.6
20260506151537 76 0 0.0 3.0 0.00 0.00 0.00 87 1008.4
20260506150029 76 5 0.0 4.0 0.00 0.00 0.00 88 1008.3
20260506144529 76 0 0.0 3.0 0.00 0.00 0.00 88 1008.3
20260506143028 76 146 0.0 4.0 0.00 0.00 0.00 88 1008.0
20260506141532 76 223 1.0 4.0 0.00 0.00 0.00 88 1007.7
20260506140033 76 146 1.0 5.0 0.00 0.00 0.00 88 1007.4
20260506134528 75 199 1.0 6.0 0.00 0.00 0.00 88 1007.0
20260506133029 75 142 2.0 7.0 0.00 0.00 0.00 89 1006.9
20260506131534 75 152 2.0 9.0 0.00 0.00 0.00 89 1006.7
20260506130030 75 194 3.0 9.0 0.00 0.00 0.00 89 1006.6
20260506124530 75 161 2.0 8.0 0.00 0.00 0.00 89 1006.5
20260506123030 75 188 1.0 9.0 0.00 0.00 0.00 89 1006.7
20260506121527 75 166 2.0 6.0 0.00 0.00 0.00 89 1006.6
20260506120026 75 194 1.0 9.0 0.00 0.00 0.00 89 1006.5
20260506114526 75 205 1.0 4.0 0.00 0.00 0.00 89 1006.5
20260506113028 75 0 0.0 4.0 0.00 0.00 0.00 89 1006.5
20260506111530 75 200 3.0 8.0 0.00 0.00 0.00 88 1006.5
20260506110028 75 190 1.0 6.0 0.00 0.00 0.00 88 1006.5
20260506104525 75 188 1.0 8.0 0.00 0.00 0.00 88 1006.2
20260506103029 75 204 3.0 8.0 0.00 0.00 0.00 88 1006.3
20260506101530 75 209 2.0 7.0 0.00 0.00 0.00 88 1006.3
20260506100031 76 180 3.0 8.0 0.00 0.00 0.00 87 1006.1
20260506094530 76 148 2.0 9.0 0.00 0.00 0.00 87 1006.1
20260506093026 76 158 4.0 8.0 0.00 0.00 0.00 87 1006.1
20260506091527 76 165 4.0 10.0 0.00 0.00 0.00 87 1006.0
20260506090030 76 179 3.0 10.0 0.00 0.00 0.00 87 1005.9
20260506084536 76 221 3.0 10.0 0.00 0.00 0.00 87 1006.1
20260506083031 76 192 5.0 11.0 0.00 0.00 0.00 87 1006.2
20260506081528 76 184 4.0 10.0 0.00 0.00 0.00 87 1006.3
20260506073030 76 195 2.0 7.0 0.00 0.00 0.00 87 1006.6
20260506071528 76 192 5.0 13.0 0.00 0.00 0.00 87 1006.8
20260506061531 76 178 5.0 11.0 0.00 0.00 0.00 87 1006.7
20260506044530 77 164 2.0 6.0 0.00 0.00 0.00 85 1006.6
20260506043027 77 164 3.0 10.0 0.00 0.00 0.00 85 1006.7
20260506041539 77 178 5.0 9.0 0.00 0.00 0.00 84 1006.5
20260506040029 78 154 5.0 10.0 0.00 0.00 0.00 84 1006.3
20260506034546 78 180 3.0 8.0 0.00 0.00 0.00 83 1006.0
20260506033028 79 152 4.0 10.0 0.00 0.00 0.00 83 1005.7
20260506031526 79 179 4.0 10.0 0.00 0.00 0.00 82 1005.7
20260506030027 80 163 3.0 11.0 0.00 0.00 0.00 81 1005.6
20260506024530 81 150 3.0 10.0 0.00 0.00 0.00 80 1005.3
20260506023027 81 138 5.0 12.0 0.00 0.00 0.00 78 1005.1
20260506021528 82 152 3.0 8.0 0.00 0.00 0.00 77 1005.0
20260506020028 83 180 4.0 11.0 0.00 0.00 0.00 75 1004.7
20260506014527 83 142 3.0 14.0 0.00 0.00 0.00 73 1004.6
20260506013043 84 167 2.0 9.0 0.00 0.00 0.00 71 1004.3
20260506011531 85 188 2.0 7.0 0.00 0.00 0.00 71 1004.0
20260506010027 85 145 1.0 5.0 0.00 0.00 0.00 70 1003.8
20260506004527 86 151 2.0 7.0 0.00 0.00 0.00 68 1003.7
20260506003027 86 163 3.0 7.0 0.00 0.00 0.00 67 1003.7
20260506001530 87 126 2.0 7.0 0.00 0.00 0.00 67 1003.7
20260506000029 87 130 0.0 5.0 0.00 0.00 0.00 65 1003.4
20260505234528 88 130 1.0 6.0 0.00 0.00 0.00 65 1003.5
20260505233029 87 152 2.0 5.0 0.00 0.00 0.00 66 1003.3
20260505231530 87 155 2.0 8.0 0.00 0.00 0.00 66 1003.3
20260505230028 88 161 0.0 6.0 0.00 0.00 0.00 65 1003.4
20260505224527 88 0 2.0 7.0 0.00 0.00 0.00 63 1003.4
20260505223037 88 118 2.0 9.0 0.00 0.00 0.00 64 1003.4
20260505221530 88 175 4.0 11.0 0.00 0.00 0.00 63 1003.5
20260505220046 88 151 3.0 8.0 0.00 0.00 0.00 63 1003.8
20260505214534 88 155 5.0 9.0 0.00 0.00 0.00 63 1004.0
20260505213033 88 175 3.0 9.0 0.00 0.00 0.00 63 1004.2
20260505211528 87 195 3.0 11.0 0.00 0.00 0.00 63 1004.4
20260505210033 87 144 1.0 8.0 0.00 0.00 0.00 64 1004.6
20260505204530 87 215 3.0 12.0 0.00 0.00 0.00 64 1004.8
20260505203026 88 185 5.0 11.0 0.00 0.00 0.00 63 1005.1
20260505201528 88 155 5.0 11.0 0.00 0.00 0.00 63 1005.3
20260505200035 87 202 4.0 10.0 0.00 0.00 0.00 64 1005.5
20260505194528 86 190 1.0 8.0 0.00 0.00 0.00 67 1005.6
20260505193034 85 215 3.0 8.0 0.00 0.00 0.00 69 1005.9
20260505191535 83 217 3.0 10.0 0.00 0.00 0.00 71 1006.1